Location: Creekside Mobile Home Park
(42.5547°N, 73.6783°W)
Time: 11:40:35
(UTC+00:00)

Daily predictions for brighter satellites

Satellite Brightness Start Highest point End
(mag) Time Altitude Azimuth Time Altitude Azimuth Time Altitude Azimuth
Cosmos 2184 Rocket 4.2 22:17:26 10° S 22:23:36 78° W 22:29:47 10° N
SMAP 3.1 22:20:59 10° SSE 22:25:39 87° WSW 22:30:20 10° NNW
USA 234 3.3 22:23:18 10° SE 22:29:51 88° NE 22:36:26 10° NW
AQUARIUS 4.2 22:25:30 10° SSE 22:29:58 87° WSW 22:34:31 10° NNW
ERBS 2.3 22:27:48 10° SW 22:31:07 70° SE 22:34:25 10° NE
COSMO-SKYMED 1 3.3 22:27:19 10° NNE 22:31:17 34° E 22:35:14 10° SSE
CZ-4B R/B 4.5 22:31:21 10° NW 22:31:56 10° WNW 22:32:31 10° WNW
Cosmos 2154 Rocket 4.0 22:25:46 10° S 22:32:02 78° E 22:38:17 10° N
DELTA 2 R/B (1) 4.0 22:27:26 10° WSW 22:32:54 57° SSE 22:38:23 10° E
TIMED 4.5 22:29:37 10° NNW 22:33:59 66° ENE 22:38:19 10° SSE
Cosmos 1758 Rocket 4.1 22:30:30 10° SSE 22:34:25 35° E 22:38:21 10° NNE
Cosmos 1455 3.6 22:32:11 10° NNE 22:34:48 17° ENE 22:37:24 10° ESE
Cosmos 1125 Rocket 3.7 22:31:11 10° SSW 22:36:21 74° WNW 22:41:35 10° NNE
Cosmos 1626 Rocket 4.0 22:34:38 10° SSW 22:38:57 65° W 22:43:15 10° N
Cosmos 1271 Rocket 4.2 22:35:55 10° SW 22:39:25 38° WNW 22:42:58 10° N
Cosmos 2237 Rocket 2.3 22:35:38 10° NNW 22:41:11 57° ENE 22:46:42 10° SE
NOAA 12 4.1 22:38:46 10° SSE 22:43:59 89° ENE 22:49:16 10° NNW
Envisat 3.0 22:41:03 10° SSE 22:46:08 86° ENE 22:51:15 10° NNW
Cosmos 2333 Rocket 3.5 22:41:54 10° NW 22:47:20 46° WSW 22:52:43 10° S
CSL-04 Rocket 4.2 22:44:32 10° SE 22:49:31 37° ENE 22:54:33 10° N
Okean-O 2.6 22:45:15 10° SSE 22:49:40 80° ENE 22:54:07 10° N
Cosmos 1340 Rocket 2.9 22:46:56 10° NNW 22:50:53 79° W 22:54:53 10° S
ATLAS CENTAUR R/B 4.5 22:45:47 10° W 22:51:14 43° NNW 23:05:22 10° NE
ATLAS 5 CENTAUR R/B 4.2 22:51:20 10° NW 22:53:23 13° NNW 22:55:33 10° N
Shenzhou-11 Module 2.7 22:54:32 10° SW 22:57:02 35° SSE 22:58:27 20° ESE
Cosmos 2366 rocket 4.4 22:51:40 10° SSE 22:57:20 39° E 23:03:06 10° NNE
Cosmos 1825 Rocket 3.5 22:54:44 10° S 22:59:00 59° E 23:03:17 10° NNE
Iridium 96 4.1 22:57:28 10° NNE 22:59:38 34° E 23:01:55 10° SSE
NOSS 0 Rocket 4.2 22:53:49 10° NNW 23:00:02 73° WSW 23:06:10 10° SSE
Cosmos 1269 Rocket 4.0 22:55:48 10° NNW 23:01:06 86° ENE 23:06:23 10° SSE
SL-16 R/B 2.8 22:58:22 10° N 23:03:31 34° NE 23:08:37 10° ESE
Cosmos 962 Rocket 4.4 22:57:44 10° S 23:03:51 86° E 23:10:04 10° N
ADEOS Rocket 4.0 23:00:57 10° NE 23:06:51 32° E 23:13:13 10° SSE
Cosmos 2219 3.4 23:02:21 10° SSW 23:07:57 73° WNW 23:13:36 10° NNE
Meteor 1-21 Rocket 4.2 23:03:44 10° S 23:09:19 83° E 23:15:02 10° NNE
Cosmos 2082 4.0 23:04:53 10° S 23:10:11 45° ESE 23:14:46 14° NE
CZ-4C R/B 3.7 23:09:13 10° NW 23:16:29 57° WSW 23:24:35 10° SSE
DELTA 2 R/B(2) 4.3 23:17:04 10° WSW 23:19:02 37° S 23:19:19 34° SSE
SKYMED 2 3.8 23:15:04 10° N 23:19:24 71° WNW 23:23:43 10° SSW
Cosmos 2297 Rocket 2.2 23:13:59 10° SSW 23:19:38 83° WNW 23:25:21 10° NNE
USA 116 3.1 23:18:27 24° NNE 23:20:09 56° E 23:23:11 10° S
Cosmos 1939 Rocket 2.9 23:17:09 10° SSE 23:20:55 49° ENE 23:24:45 10° N
Cosmos 1980 4.2 23:18:10 10° NNW 23:23:46 63° WSW 23:29:22 10° S
Cosmos 1727 Rocket 4.2 23:19:32 10° N 23:25:29 46° ENE 23:31:22 10° SSE
FALCON 9 R/B 4.4 23:12:20 10° SW 23:28:12 28° S 23:33:12 15° ESE
Cosmos 1703 3.2 23:25:04 10° S 23:28:58 64° E 23:31:57 17° NNE
Ariane Rocket 3.5 23:25:03 10° SE 23:29:37 35° ENE 23:34:13 10° N
SL-8 R/B 3.6 23:25:29 10° WSW 23:30:19 88° SSE 23:32:26 34° ENE
Cosmos 2227 Rocket 2.4 23:26:33 10° SSW 23:32:12 73° WNW 23:37:53 10° NNE
SL-8 Rocket 4.0 23:26:45 10° S 23:33:04 86° W 23:39:24 10° N
NOAA 11 4.1 23:27:58 10° SSE 23:33:28 82° ENE 23:38:59 10° NNW
YAOGAN 1 2.6 23:31:37 10° S 23:35:56 80° WSW 23:40:17 10° NNW
Cosmos-2242 3.3 23:31:46 10° NNW 23:36:04 67° W 23:40:18 10° S
USA 267 4.5 23:34:11 15° NE 23:38:33 30° NNW 23:44:04 10° WNW
ISS -3.5 23:36:17 10° WSW 23:39:37 62° NNW 23:40:05 54° NNE
H-2A ROCKET BODY 4.0 23:37:05 10° WSW 23:42:12 16° SW 23:44:53 10° S
Cosmos 44 3.2 23:41:01 10° SW 23:45:38 76° WNW 23:47:33 34° NNE
Meteor 2-10 Rocket 3.7 23:42:32 10° NNW 23:47:51 74° W 23:52:56 10° S
H-2A R/B 3.8 23:54:32 17° NNE 23:54:32 17° NNE 23:55:49 10° N
ATLAS CENTAUR R/B 2.9 23:48:08 10° NNW 23:49:59 21° N 23:49:59 21° N
CZ-4 R/B 3.0 23:49:12 10° SSW 23:52:56 37° W 23:56:47 10° NNW
